Location: Anuling
(14.1239°N, 120.8922°E)
Time: 01:47:52
(UTC+00:00)

GPS 2-17 Rocket1 - Pass Details

Date: 14 April 2026
Orbit: 544 x 613 km, 20.3° (Epoch: 19 May)

Event Time Altitude Azimuth Distance (km) Brightness Sun altitude
Rises 10:47:24 0° 287° (WNW) 2,856 8.8 -9.8°
Reaches altitude 10° 10:49:51 10° 295° (WNW) 1,954 7.1 -10.3°
Maximum altitude 10:54:11 40° 6° (N) 892 3.9 -11.4°
Enters shadow 10:57:51 14° 72° (ENE) 1,725 4.8 -12.2°
